星链-4776 (STARLINK-4776 )

导读

STARLINK-4776是美国SpaceX公司星链星座中的一颗低轨通信卫星,于2022年9月19日发射升空,属于星链一代组网卫星。该卫星运行在近地轨道,依托星链星座的规模化部署,为全球提供高速低延迟宽带互联网服务,重点覆盖地面网络难以抵达的偏远地区、海洋与空域,也可支持应急和商业通信,是星链实现全球覆盖战略的重要组成单元。

Basic Information
目录编号:
53837
目录名称:
STARLINK-4776
国际标识:
2022-114V
轨道中心:
EARTH
卫星名称:
星链-4776
卫星全名:
星链-4776 (STARLINK-4776 )
卫星状态:
在轨 (已飞行1446 天)
发射日期:
2022-09-19 UTC
国别 :
美国 (US)
星等 :
--
Orbit Information
数据来源 国际轨道数据 AOE轨道数据
星历时间 2026-09-04T15:50:41+0800
12小时前
查看轨道信息
2026-09-02T23:00:00+0800
2天前
查看轨道信息
半长轴 6917.894km 6917.876km
偏心率 0.0000809 0.000064
轨道倾角 53.160° 53.160°
近地点辐角 79.567° 70.668°
升交点赤经 221.330° 228.985°
平近点角 280.541° 40.178°
近地点 539.197km 539.296km
远地点 540.317km 540.182km
周期 95.438分钟 95.437分钟
每日圈数 15.088358 15.088415
Detailed Information
固有亮度:
5
最大亮度:
2.5
卫星平台:
Starlink v1.5
覆盖范围:
全球
运营商:
太空探索技术公司
运营商所在国:
美国
制造商(研发单位):
太空探索技术公司
制造商所在国:
美国
使用方式:
暂无
Satellite Introduction
星链(Starlink)计划是由太空探索技术公司(SpaceX)提出的一个巨型低轨卫星互联网星座项目,计划在2019年至2024年间在太空搭建由约1.2万颗卫星组成的“星链”网络,其中1584颗将部署在地球上空550千米处的近地轨道,并从2020年开始工作。该卫星仍在工作。
2D Orbit Map
3D Orbit Map
Orbit Altitude Analysis Chart
Orbit Inclination Analysis Chart
Orbit Comprehensive Analysis Chart
View Comprehensive Chart
Conjunction Data List
Event ID Objects TCA Miss Dist (km) Collision Risk Probability Collision Risk Index (CRI) Action
CDM_260905-004105-383706-273122
OBJECT C (62731)
2026-09-05T
00:41:32+0000
2.631 km
极远距离
1.590658E-6 低风险 0.39
CDM_260830-222505-383706-538021
2026-08-30T
22:25:34+0000
2.946 km
极远距离
1.303692E-6 低风险 0.37